"Pseudo-MPEC" for ST26E49

Created 2026 May 13 7:35:10 UT using Find_Orb

Click here for an explanation of pseudo-MPECs

 
 Astrometry: 
     ST26E49* C2026 05 13.24180614 17 53.511-06 57 44.92   ~5D6Z 18.70GVNEOCPU68
     ST26E49  C2026 05 13.24514714 17 52.793-06 57 46.73   ~5D6Z 18.70GVNEOCPU68

Station data:
(U68) JPL SynTrack Robotic Telescope, Auberry  (N37.070387 W119.412990)
   US/California.  Observers N. Saini, C. Zhai, R. Trahan, M. Zhan, M. Shao.
   0.28-m f/2.2 Schmidt + CCD.

Orbital elements:  ST26E49
   Perihelion 2026 Mar 3.776191 +/- 140 TT = 18:37:42.8 (JD 2461103.276191)
Epoch 2026 May 13.0 TT = JDT 2461173.5   Earth MOID: 0.1506   Ju: 0.9914
M  11.726410863 +/- 70              Ma: 0.0741                   AutoNEOCP
n   0.166986254 +/- 0.257           Peri.   27.325851 +/- 70
a   3.265995388 +/- 3.35            Node    49.296325 +/- 52
e   0.95104899 +/- 0.228            Incl.   32.975966 +/- 40
P   5.90233                H 18.24  G  0.15   U 11.8  SR
q 0.159873770 +/- 0.582    Q 6.372117006 +/- 19.7         (J2000 ecliptic)
From 2 observations 2026 May 13 (4.8 min); mean residual 0".00
Residuals in arcseconds: 
260513 U68  .00   .00     260513 U68  .00   .00     

Ephemerides (geocentric):
Date (UTC) HH   RA             Dec           delta  r     elong  mag " sig PA
---- --------  ------------   ------------  ------ ------ -----  --- --------
2026 05 13 08  14 17 34.107   -06 58 24.57  .62980 1.6193 161.2 19.0  108 162
2026 05 13 09  14 17 25.406   -06 58 46.95  .63059 1.6200 161.1 19.0  121 148
2026 05 13 10  14 17 16.729   -06 59 09.29  .63138 1.6206 161.1 19.0  140 137
2026 05 13 11  14 17 08.076   -06 59 31.59  .63217 1.6213 161.0 19.0  162 130
2026 05 13 12  14 16 59.446   -06 59 53.85  .63296 1.6219 160.9 19.0  187 124
2026 05 13 13  14 16 50.839   -07 00 16.06  .63375 1.6225 160.9 19.0  213 119
2026 05 13 14  14 16 42.256   -07 00 38.24  .63455 1.6232 160.8 19.0  240 116
2026 05 13 15  14 16 33.696   -07 01 00.38  .63534 1.6238 160.7 19.0  268 113
2026 05 13 16  14 16 25.160   -07 01 22.48  .63613 1.6245 160.7 19.0  296 111
2026 05 13 17  14 16 16.646   -07 01 44.54  .63693 1.6251 160.6 19.0  324 109
2026 05 13 18  14 16 08.156   -07 02 06.56  .63772 1.6258 160.6 19.0  353 108
2026 05 13 19  14 15 59.689   -07 02 28.54  .63851 1.6264 160.5 19.0  382 106
2026 05 13 20  14 15 51.244   -07 02 50.48  .63931 1.6271 160.4 19.0  411 105
2026 05 13 21  14 15 42.823   -07 03 12.38  .64011 1.6277 160.4 19.1  441 104
2026 05 13 22  14 15 34.425   -07 03 34.24  .64090 1.6283 160.3 19.1  470 104
2026 05 13 23  14 15 26.049   -07 03 56.07  .64170 1.6290 160.3 19.1  500 103
2026 05 14 00  14 15 17.697   -07 04 17.85  .64250 1.6296 160.2 19.1  529 102
2026 05 14 01  14 15 09.366   -07 04 39.60  .64329 1.6303 160.1 19.1  559 102
2026 05 14 02  14 15 01.059   -07 05 01.31  .64409 1.6309 160.1 19.1  588 101
2026 05 14 03  14 14 52.774   -07 05 22.98  .64489 1.6315 160.0 19.1  618 101
2026 05 14 04  14 14 44.512   -07 05 44.61  .64569 1.6322 159.9 19.1  648 101
2026 05 14 05  14 14 36.272   -07 06 06.21  .64649 1.6328 159.9 19.1  677 100
2026 05 14 06  14 14 28.055   -07 06 27.77  .64729 1.6335 159.8 19.1  707 100
2026 05 14 07  14 14 19.860   -07 06 49.29  .64809 1.6341 159.8 19.1  737 100
2026 05 14 08  14 14 11.687   -07 07 10.77  .64889 1.6348 159.7 19.1  767  99
2026 05 14 09  14 14 03.536   -07 07 32.22  .64970 1.6354 159.6 19.1  797  99
2026 05 14 10  14 13 55.408   -07 07 53.63  .65050 1.6360 159.6 19.1  827  99
2026 05 14 11  14 13 47.302   -07 08 15.00  .65130 1.6367 159.5 19.1  857  99
2026 05 14 12  14 13 39.218   -07 08 36.34  .65211 1.6373 159.4 19.1  887  99
2026 05 14 13  14 13 31.156   -07 08 57.64  .65291 1.6380 159.4 19.1  917  98
2026 05 14 14  14 13 23.116   -07 09 18.90  .65371 1.6386 159.3 19.1  947  98
2026 05 14 15  14 13 15.097   -07 09 40.13  .65452 1.6392 159.3 19.1  977  98
2026 05 14 16  14 13 07.101   -07 10 01.32  .65533 1.6399 159.2 19.1 1007  98
2026 05 14 17  14 12 59.126   -07 10 22.47  .65613 1.6405 159.1 19.1 1038  98
2026 05 14 18  14 12 51.173   -07 10 43.59  .65694 1.6412 159.1 19.2 1068  98
2026 05 14 19  14 12 43.242   -07 11 04.68  .65775 1.6418 159.0 19.2 1098  98
2026 05 14 20  14 12 35.333   -07 11 25.73  .65855 1.6424 158.9 19.2 1129  98
2026 05 14 21  14 12 27.445   -07 11 46.74  .65936 1.6431 158.9 19.2 1159  98
2026 05 14 22  14 12 19.578   -07 12 07.72  .66017 1.6437 158.8 19.2 1190  98
2026 05 14 23  14 12 11.733   -07 12 28.67  .66098 1.6444 158.8 19.2 1221  97
2026 05 15 00  14 12 03.909   -07 12 49.58  .66179 1.6450 158.7 19.2 1251  97
2026 05 15 01  14 11 56.107   -07 13 10.45  .66260 1.6456 158.6 19.2 1282  97
2026 05 15 02  14 11 48.326   -07 13 31.29  .66341 1.6463 158.6 19.2 1313  97
2026 05 15 03  14 11 40.566   -07 13 52.10  .66422 1.6469 158.5 19.2 1344  97
2026 05 15 04  14 11 32.827   -07 14 12.87  .66503 1.6475 158.4 19.2 1375  97
2026 05 15 05  14 11 25.110   -07 14 33.61  .66585 1.6482 158.4 19.2 1407  97
2026 05 15 06  14 11 17.413   -07 14 54.31  .66666 1.6488 158.3 19.2 1438  97
2026 05 15 07  14 11 09.738   -07 15 14.98  .66747 1.6495 158.3 19.2 1470  97